Location: Nianha
(10.8000°N, 4.6333°W)
Time: 21:23:54
(UTC+00:00)

Cosmos 1538 Rocket - Pass Details

Date: 14 November 2019
Orbit: 752 x 792 km, 74.0° (Epoch: 22 January)

Event Time Altitude Azimuth Distance (km) Brightness Sun altitude
Exits shadow 05:25:11 - 332° (NNW) 2,749 6.5 -12.2°
Reaches altitude 10° 05:26:16 10° 329° (NNW) 2,347 6.1 -11.9°
Maximum altitude 05:31:17 42° 259° (W) 1,112 4.4 -10.8°
Drops below altitude 10° 05:36:16 10° 189° (S) 2,333 6.6 -9.6°
Sets 05:38:45 0° 182° (S) 3,255 7.5 -9.0°
